Weather History for GMMX - February, 2015

Change the Weather History Date:

Thursday, February 5, 2015

  Actual Average Record
Temperature  
Mean Temperature 50 °F -  
Max Temperature 58 °F 68 °F 78 °F (2000)
Min Temperature 42 °F 46 °F 30 °F (2012)
Degree Days  
Heating Degree Days 15    
Moisture  
Dew Point 38 °F    
Average Humidity 65    
Maximum Humidity 100    
Minimum Humidity 28    
Precipitation  
Precipitation 0.00 in 0.05 in - ()
Sea Level Pressure  
Sea Level Pressure 30.09 in    
Wind  
Wind Speed 6 mph ()    
Max Wind Speed 14 mph    
Max Gust Speed -    
Visibility 6.2 miles    
Events Fog    
Averages and records for this station are not official NWS values.
T = Trace of Precipitation, MM = Missing Value Source: Averaged Metar Reports

Daily Weather History Graph

Daily Weather History Graph

Search for Another Location

Airport or City:

Trip Planner

Search our weather history database for the weather conditions in past years. The results will help you decide how hot, cold, wet, or windy it might be!

Date:

Astronomy

Feb. 05, 2015 Rise Set
Actual Time 7:22 AM WET 6:10 PM WET
Civil Twilight 6:57 AM WET 6:35 PM WET
Nautical Twilight 6:28 AM WET 7:04 PM WET
Astronomical Twilight 5:59 AM WET 7:32 PM WET
Moon 7:44 PM WET (2/5) 7:58 AM WET (2/5)
Length of Visible Light 11h 38m
Length of Day
10h 47m
Full, 98% of the Moon is Illuminated
Feb 5
Full
Feb 12
Last Quarter
Feb 18
New
Feb 25
First Quarter
Mar 5
Full

Hourly Weather History & Observations

Time (WET) Temp. Windchill Dew Point Humidity Pressure Visibility Wind Dir Wind Speed Gust Speed Precip Events Conditions
12:00 AM 48 °F - 47 °F 96% 30.12 in 6 mi Calm Calm - - Fog Fog
12:00 AM 48.2 °F - 48.2 °F 100% 30.09 in 6.2 mi Calm Calm - N/A   Mostly Cloudy
2:00 AM 48.2 °F - 48.2 °F 100% 30.06 in 6.2 mi Calm Calm - N/A   Mostly Cloudy
2:30 AM 48.2 °F - 46.4 °F 93% 30.09 in 6.2 mi Variable 2.3 mph - N/A   Mostly Cloudy
3:00 AM 48 °F - 45 °F 86% 30.11 in 6 mi NNE 6.9 mph - -   Mostly Cloudy
3:00 AM 48.2 °F - 44.6 °F 87% 30.06 in 6.2 mi North 6.9 mph - N/A   Mostly Cloudy
3:30 AM 48.2 °F - 44.6 °F 87% 30.06 in 6.2 mi NNE 5.8 mph - N/A   Mostly Cloudy
4:00 AM 48.2 °F - 42.8 °F 82% 30.06 in 6.2 mi NE 6.9 mph - N/A   Mostly Cloudy
4:30 AM 46.4 °F 42.9 °F 42.8 °F 87% 30.06 in 6.2 mi NE 6.9 mph - N/A   Unknown
5:00 AM 46.4 °F 44.3 °F 41.0 °F 81% 30.06 in 6.2 mi NE 4.6 mph - N/A   Mostly Cloudy
5:30 AM 46.4 °F 42.9 °F 41.0 °F 81% 30.09 in 6.2 mi NE 6.9 mph - N/A   Mostly Cloudy
6:00 AM 46 °F - 41 °F 77% 30.13 in 6 mi NE 6.9 mph - -   Mostly Cloudy
6:00 AM 46.4 °F 43.5 °F 41.0 °F 81% 30.09 in 6.2 mi NE 5.8 mph - N/A   Mostly Cloudy
6:30 AM 46.4 °F 42.4 °F 41.0 °F 81% 30.09 in 6.2 mi ENE 8.1 mph - N/A   Mostly Cloudy
7:00 AM 46.4 °F 44.3 °F 44.6 °F 93% 30.12 in 6.2 mi East 4.6 mph - N/A   Mostly Cloudy
7:30 AM 46.4 °F 43.5 °F 44.6 °F 93% 30.12 in 6.2 mi East 5.8 mph - N/A   Mostly Cloudy
8:00 AM 46.4 °F 43.5 °F 44.6 °F 93% 30.12 in 6.2 mi ENE 5.8 mph - N/A   Mostly Cloudy
8:30 AM 46.4 °F 42.9 °F 42.8 °F 87% 30.12 in 6.2 mi ENE 6.9 mph - N/A   Mostly Cloudy
9:00 AM 48 °F - 41 °F 70% 30.17 in 6 mi ENE 10.4 mph - -   Mostly Cloudy
9:00 AM 48.2 °F - 41.0 °F 76% 30.12 in 6.2 mi ENE 9.2 mph - N/A   Mostly Cloudy
9:30 AM 50.0 °F - 39.2 °F 66% 30.15 in 6.2 mi East 13.8 mph - N/A   Mostly Cloudy
10:00 AM 51.8 °F - 39.2 °F 62% 30.15 in 6.2 mi East 12.7 mph - N/A   Scattered Clouds
10:30 AM 51.8 °F - 39.2 °F 62% 30.15 in 6.2 mi ENE 10.4 mph - N/A   Scattered Clouds
11:00 AM 53.6 °F - 39.2 °F 58% 30.15 in 6.2 mi East 12.7 mph - N/A   Scattered Clouds
11:30 AM 53.6 °F - 37.4 °F 54% 30.12 in 6.2 mi East 11.5 mph - N/A   Scattered Clouds
12:00 PM 55 °F - 38 °F 41% 30.14 in 6 mi ENE 9.2 mph - -   Partly Cloudy
12:00 PM 55.4 °F - 37.4 °F 51% 30.12 in 6.2 mi ENE 9.2 mph - N/A   Scattered Clouds
12:30 PM 55.4 °F - 37.4 °F 51% 30.12 in 6.2 mi ENE 8.1 mph - N/A   Scattered Clouds
1:00 PM 55.4 °F - 33.8 °F 44% 30.09 in 6.2 mi NNE 9.2 mph - N/A   Scattered Clouds
1:30 PM 57.2 °F - 33.8 °F 41% 30.09 in 6.2 mi ENE 5.8 mph - N/A   Scattered Clouds
2:00 PM 57.2 °F - 33.8 °F 41% 30.09 in 6.2 mi NNE 6.9 mph - N/A   Scattered Clouds
2:30 PM 59.0 °F - 30.2 °F 34% 30.06 in 6.2 mi NE 8.1 mph - N/A   Scattered Clouds
3:00 PM 58 °F - 34 °F 28% 30.07 in 6 mi NE 8.1 mph - -   Partly Cloudy
3:00 PM 59.0 °F - 32.0 °F 36% 30.06 in 6.2 mi NE 6.9 mph - N/A   Scattered Clouds
3:30 PM 59.0 °F - 33.8 °F 39% 30.06 in 6.2 mi NNE 10.4 mph - N/A   Partly Cloudy
4:00 PM 57.2 °F - 33.8 °F 41% 30.06 in 6.2 mi ENE 10.4 mph - N/A   Partly Cloudy
4:30 PM 57.2 °F - 33.8 °F 41% 30.06 in 6.2 mi ENE 9.2 mph - N/A   Partly Cloudy
5:00 PM 57.2 °F - 33.8 °F 41% 30.06 in 6.2 mi NE 12.7 mph - N/A   Partly Cloudy
5:30 PM 55.4 °F - 35.6 °F 47% 30.06 in 6.2 mi NE 12.7 mph - N/A   Partly Cloudy
6:00 PM 53 °F - 34 °F 36% 30.09 in 6 mi NE 11.5 mph - -   Scattered Clouds
6:00 PM 53.6 °F - 33.8 °F 47% 30.06 in 6.2 mi NE 12.7 mph - N/A   Partly Cloudy
6:30 PM 51.8 °F - 32.0 °F 47% 30.06 in 6.2 mi NNE 9.2 mph - N/A   Partly Cloudy
7:00 PM 51.8 °F - 32.0 °F 47% 30.09 in 6.2 mi NE 11.5 mph - N/A   Partly Cloudy
7:30 PM 50.0 °F - 32.0 °F 50% 30.06 in 6.2 mi NE 10.4 mph - N/A   Partly Cloudy
8:00 PM 50.0 °F - 32.0 °F 50% 30.09 in - NE 9.2 mph - N/A   Clear
9:00 PM 47 °F - 34 °F 50% 30.13 in 6 mi ENE 6.9 mph - -  
9:00 PM 48.2 °F - 33.8 °F 58% 30.09 in - ENE 6.9 mph - N/A   Clear
9:30 PM 44.6 °F 40.7 °F 35.6 °F 71% 30.09 in - East 6.9 mph - N/A   Clear
10:00 PM 42.8 °F 39.3 °F 35.6 °F 76% 30.09 in - East 5.8 mph - N/A   Clear
10:30 PM 42.8 °F 40.1 °F 35.6 °F 76% 30.09 in - East 4.6 mph - N/A   Clear
11:00 PM 42.8 °F 39.3 °F 35.6 °F 76% 30.06 in - East 5.8 mph - N/A   Clear
11:30 PM 42.8 °F 40.1 °F 35.6 °F 76% 30.06 in - ENE 4.6 mph - N/A   Clear